TimeEST,TemperatureF,Dew PointF,Humidity,Sea Level PressureIn,VisibilityMPH,Wind Direction,Wind SpeedMPH,Gust SpeedMPH,PrecipitationIn,Events,Conditions,WindDirDegrees,DateUTC
12:53 AM,39.9,37.9,93,30.24,6.0,Calm,Calm,-,N/A,,Mostly Cloudy,0,2012-12-13 05:53:00
1:44 AM,39.2,37.4,93,30.20,6.0,NNW,5.8,-,N/A,,Scattered Clouds,330,2012-12-13 06:44:00
1:53 AM,39.0,37.0,93,30.24,6.0,NW,5.8,-,N/A,,Partly Cloudy,310,2012-12-13 06:53:00
2:53 AM,37.9,36.0,93,30.25,6.0,North,3.5,-,N/A,,Clear,350,2012-12-13 07:53:00
3:53 AM,39.0,36.0,89,30.25,8.0,NNW,3.5,-,N/A,,Clear,330,2012-12-13 08:53:00
4:53 AM,37.0,35.1,93,30.25,6.0,NNW,3.5,-,N/A,,Clear,330,2012-12-13 09:53:00
5:44 AM,39.2,35.6,87,30.23,6.0,NNW,5.8,-,N/A,,Mostly Cloudy,330,2012-12-13 10:44:00
5:53 AM,39.0,37.0,93,30.27,6.0,NNW,6.9,-,N/A,,Overcast,330,2012-12-13 10:53:00
6:53 AM,42.1,39.9,92,30.28,5.0,NNW,5.8,-,N/A,,Overcast,330,2012-12-13 11:53:00
7:53 AM,45.0,43.0,93,30.29,5.0,North,5.8,-,N/A,,Overcast,360,2012-12-13 12:53:00
8:53 AM,46.9,44.1,90,30.29,7.0,North,9.2,-,N/A,,Overcast,10,2012-12-13 13:53:00
9:53 AM,50.0,46.0,86,30.32,10.0,North,9.2,-,N/A,,Overcast,360,2012-12-13 14:53:00
10:53 AM,51.1,46.0,83,30.34,10.0,NNE,10.4,-,N/A,,Overcast,20,2012-12-13 15:53:00
11:53 AM,52.0,45.0,77,30.34,10.0,NNE,10.4,-,N/A,,Overcast,20,2012-12-13 16:53:00
12:00 PM,51.8,44.6,76,30.29,10.0,North,10.4,-,N/A,,Overcast,10,2012-12-13 17:00:00
12:53 PM,55.0,45.0,69,30.30,10.0,NNE,11.5,-,N/A,,Overcast,30,2012-12-13 17:53:00
1:00 PM,53.6,44.6,72,30.26,10.0,North,12.7,-,N/A,,Mostly Cloudy,350,2012-12-13 18:00:00
1:37 PM,57.2,44.6,63,30.26,10.0,NNE,8.1,-,N/A,,Scattered Clouds,30,2012-12-13 18:37:00
1:53 PM,55.9,45.0,67,30.29,10.0,NNE,8.1,-,N/A,,Scattered Clouds,20,2012-12-13 18:53:00
2:53 PM,57.0,45.0,64,30.27,10.0,North,13.8,18.4,N/A,,Clear,10,2012-12-13 19:53:00
3:53 PM,59.0,45.0,60,30.26,10.0,North,11.5,-,N/A,,Clear,10,2012-12-13 20:53:00
4:53 PM,57.0,45.0,64,30.27,10.0,NNE,5.8,-,N/A,,Clear,20,2012-12-13 21:53:00
5:53 PM,53.6,44.6,72,30.24,10.0,North,5.8,-,N/A,,Clear,10,2012-12-13 22:53:00
6:53 PM,48.9,44.1,83,30.29,10.0,Calm,Calm,-,N/A,,Clear,0,2012-12-13 23:53:00
7:53 PM,45.0,42.1,90,30.30,7.0,Calm,Calm,-,N/A,,Clear,0,2012-12-14 00:53:00
8:53 PM,43.0,41.0,93,30.31,7.0,Calm,Calm,-,N/A,,Clear,0,2012-12-14 01:53:00
9:53 PM,42.1,39.0,89,30.33,9.0,Calm,Calm,-,N/A,,Clear,0,2012-12-14 02:53:00
10:53 PM,42.1,39.0,89,30.32,8.0,NE,4.6,-,N/A,,Clear,50,2012-12-14 03:53:00
11:53 PM,39.9,37.9,93,30.33,6.0,North,3.5,-,N/A,,Clear,10,2012-12-14 04:53:00